Wind_Speed
20 20 19 19 20 18 18 19 19 18 18 17 16 15 15 15 15 14 13 12 11 10 9 9 8 8 9 9 9 9 10 10 10 10 11 11 11 11 10 11 10 10 11 12 12 11 11 11 10
20 20 19 20 19 16 17 18 18 18 18 18 17 16 16 15 15 14 13 12 11 10 9 9 9 9 9 9 8 8 9 9 9 10 10 10 10 11 11 11 11 10 10 11 11 10 10 10 10
19 19 19 19 16 16 17 17 17 18 18 17 17 16 16 15 15 13 13 12 11 10 10 9 9 9 8 8 9 9 9 9 9 10 10 10 10 10 10 10 10 10 10 10 9 9 9 9 9
18 19 19 18 16 16 17 17 17 18 18 17 16 16 15 15 14 13 13 13 12 11 10 10 9 9 8 9 9 8 9 9 9 9 10 9 9 9 9 10 10 10 10 10 10 9 9 10 9
17 19 18 16 16 17 18 18 19 19 19 18 17 16 16 16 15 14 13 12 12 11 11 11 10 10 9 9 8 8 8 9 9 9 9 9 9 9 10 10 9 10 10 10 9 8 8 8 8
17 18 16 15 16 17 18 18 19 19 19 18 17 17 17 16 15 14 14 13 12 11 11 10 10 10 10 9 9 9 9 9 8 8 9 9 9 9 9 9 9 9 9 9 9 9 9 9 8
16 16 15 15 15 17 18 18 18 18 18 18 17 17 17 17 16 15 14 13 12 12 11 11 10 10 10 9 9 9 9 9 9 9 9 9 8 8 8 8 8 8 9 9 9 8 8 8 8
15 15 15 15 16 16 17 19 18 18 18 18 17 17 17 17 16 15 14 13 13 12 11 10 10 9 9 9 9 9 8 8 9 9 9 8 8 7 7 8 8 7 7 7 7 7 7 7 7
15 14 13 14 15 16 17 18 18 17 18 18 18 17 17 16 16 15 14 14 13 12 11 10 10 9 9 9 9 9 8 8 8 9 8 8 7 6 7 7 7 7 6 7 7 7 7 7 7
13 12 12 13 14 15 16 17 17 17 17 17 17 17 17 16 16 15 15 14 14 12 12 11 10 9 9 8 8 8 8 8 8 8 9 8 7 7 8 7 7 7 6 6 7 6 6 6 7
11 11 11 12 13 14 15 16 17 18 18 17 17 17 17 16 16 15 15 14 14 13 12 11 10 10 9 8 8 8 8 8 8 8 8 8 7 8 8 7 8 7 6 6 6 6 6 6 6
9 9 9 10 11 13 14 15 16 18 18 17 17 16 16 16 16 15 14 14 14 14 13 12 11 9 9 9 9 8 8 8 8 8 7 7 7 6 6 6 6 6 7 7 6 6 6 5 5
7 7 7 9 10 11 13 14 15 16 17 17 17 16 16 16 16 14 14 14 14 14 13 12 11 11 10 9 8 8 8 8 7 7 7 7 6 7 7 7 6 6 6 6 6 6 5 4 4
4 5 6 7 8 10 11 12 13 14 16 17 16 16 16 15 15 14 13 13 13 13 13 12 13 13 12 11 10 9 8 8 7 7 6 6 6 6 7 6 6 6 6 6 5 5 5 4 4
2 3 4 5 6 7 9 10 11 12 14 15 15 15 15 15 14 13 13 13 13 13 13 13 12 12 12 12 11 10 10 9 7 7 6 6 6 7 7 6 6 6 5 5 5 4 4 3 3
2 1 1 2 3 5 7 8 9 10 12 14 14 14 14 14 13 13 12 12 12 12 12 12 12 12 12 11 10 9 9 9 8 7 7 7 7 7 7 7 6 5 4 5 4 3 2 2 2
4 2 2 1 1 2 5 6 7 8 10 12 13 13 13 13 12 12 12 11 11 11 11 11 11 11 11 11 11 10 9 8 8 7 6 6 6 7 6 6 6 5 5 4 3 3 2 1 1
7 5 4 2 0 1 2 4 5 6 8 10 12 12 12 12 12 11 12 11 11 11 11 10 10 10 10 10 10 10 9 8 7 6 5 5 5 6 6 5 5 4 4 3 2 1 0 0 0
10 8 7 5 3 1 1 2 4 5 6 8 10 10 11 11 11 10 10 11 11 10 10 9 10 10 9 9 9 8 8 7 6 5 5 3 4 4 4 4 4 3 3 2 2 2 1 1 2
13 11 9 8 5 4 3 2 2 3 5 7 8 9 9 9 9 9 9 10 10 10 9 9 8 8 8 8 8 8 7 7 6 5 4 3 2 2 2 3 3 3 3 2 2 3 3 3 3
16 13 12 10 7 6 5 4 3 3 3 5 7 7 8 9 8 8 9 9 9 10 9 8 8 7 7 7 7 7 7 6 6 5 4 3 3 3 3 3 3 4 4 4 4 4 4 4 5
18 17 15 13 10 9 7 6 6 5 4 5 5 6 7 7 7 7 7 8 9 9 8 8 8 7 6 6 6 6 6 6 5 5 5 4 4 4 3 4 4 4 5 5 6 6 6 5 5
21 19 17 15 13 12 10 8 9 7 6 5 5 5 6 7 7 6 7 7 8 8 8 7 7 7 7 6 6 6 6 6 6 5 5 5 5 4 4 4 5 5 6 7 8 7 7 7 7
24 21 19 17 15 15 13 11 10 9 7 6 6 6 6 6 6 6 6 7 7 8 8 7 6 6 6 6 7 7 7 7 7 6 6 5 5 5 5 5 6 6 7 8 7 7 8 8 8
25 23 20 19 18 17 16 15 12 11 9 8 7 7 6 6 6 7 7 7 7 8 8 7 7 7 7 7 7 6 7 7 8 8 8 7 7 6 6 6 6 7 7 8 8 8 8 8 8
26 24 22 19 18 17 18 17 14 13 11 10 10 8 7 7 7 7 8 8 8 8 8 8 8 7 8 8 8 7 7 8 9 9 9 9 9 8 7 7 7 8 8 9 9 9 9 10 10
28 27 24 21 19 18 19 19 16 15 14 12 11 10 10 9 8 9 9 9 9 9 10 9 9 9 9 9 9 9 10 10 10 10 10 10 10 10 9 9 9 9 9 10 10 11 12 12 12
30 28 26 24 22 20 20 20 18 16 15 14 13 12 11 10 10 10 10 10 10 10 10 10 9 10 10 9 10 11 11 12 11 11 11 10 10 11 11 10 10 11 11 11 12 12 12 13 14
31 29 28 27 25 21 19 20 19 17 16 16 15 14 13 12 12 12 11 11 11 10 10 10 9 10 10 11 12 12 12 12 12 11 11 10 11 11 11 11 11 11 12 12 12 13 13 13 15
31 30 29 28 27 25 21 20 21 18 17 17 16 15 14 14 13 13 12 12 12 11 10 10 10 11 11 12 13 13 13 12 11 11 11 11 11 12 12 12 12 13 13 13 14 14 14 15 16
Wind_Direction
65 64 64 65 67 68 71 73 72 71 69 68 69 69 70 71 72 71 68 67 66 67 68 72 87 93 96 97 105 107 108 107 107 107 108 112 115 116 119 123 124 124 129 132 136 139 139 139 138
64 63 64 64 67 67 70 73 73 71 68 67 66 67 68 67 68 69 67 67 66 67 69 73 85 89 89 91 99 104 108 109 105 101 105 109 112 115 117 122 125 126 130 132 135 134 135 136 135
64 63 64 65 66 67 69 70 71 70 68 65 64 66 66 64 63 65 65 65 64 67 71 76 80 87 90 91 98 103 102 104 102 98 103 107 109 113 118 122 127 128 132 132 132 134 135 136 135
63 64 63 63 64 66 67 69 70 69 67 65 62 65 65 62 60 60 63 64 62 67 73 73 81 86 90 94 101 103 100 98 96 98 104 109 112 112 121 124 125 129 131 131 131 132 133 132 133
65 64 62 61 64 66 67 68 68 68 66 64 63 62 63 61 58 59 62 64 66 71 73 74 80 82 89 94 100 99 100 100 98 103 105 106 114 117 124 126 124 130 134 132 130 134 138 137 138
65 65 63 63 64 64 65 66 68 68 65 64 63 63 64 62 59 59 60 62 67 70 71 75 81 82 83 90 97 99 99 100 102 102 105 107 109 113 119 123 124 126 133 138 139 136 133 139 141
69 68 65 65 65 63 64 65 66 66 64 63 62 62 63 63 60 59 59 60 64 66 67 72 78 82 83 91 97 98 100 101 99 103 107 107 110 114 119 118 118 118 127 131 133 134 134 138 138
68 66 63 64 66 65 65 64 63 63 62 62 61 60 59 60 59 58 59 60 62 64 67 72 75 78 84 90 95 100 101 102 102 104 104 107 114 118 120 116 117 114 117 125 124 124 125 132 136
70 68 66 66 66 64 64 62 60 60 60 60 59 60 58 58 58 58 58 58 59 62 65 72 77 77 84 91 97 101 104 103 99 102 103 110 117 120 122 122 124 116 117 118 119 119 119 123 127
74 74 71 68 67 64 63 61 57 56 57 57 58 59 57 56 57 58 57 56 56 60 64 69 71 74 82 90 94 97 98 103 100 102 108 113 115 118 121 126 126 120 117 117 112 122 123 125 127
78 80 75 68 66 64 63 61 58 56 55 54 55 56 54 53 55 58 57 56 55 57 63 65 66 71 78 86 91 94 94 95 95 95 101 108 112 113 115 121 123 121 118 117 113 115 123 121 128
81 79 74 70 67 63 64 61 57 56 54 51 49 50 50 51 52 57 57 57 56 57 61 65 67 68 76 84 89 91 92 94 92 94 96 101 105 109 111 116 115 110 106 106 112 111 113 112 109
84 81 72 66 68 65 63 61 56 53 52 49 48 47 48 50 50 55 56 57 56 56 61 67 68 72 79 80 84 86 92 93 93 93 94 97 101 100 103 112 115 110 103 105 111 113 114 110 107
89 84 73 65 64 63 60 58 54 51 48 46 45 46 47 46 46 50 52 53 53 54 56 64 69 76 79 78 79 85 90 88 88 93 95 94 95 95 94 96 104 106 103 102 107 121 124 115 112
109 86 69 57 61 62 56 52 48 47 45 44 43 44 44 43 43 47 50 50 50 52 55 58 66 73 77 78 77 81 84 86 88 90 95 96 90 92 89 90 93 97 98 96 97 116 125 118 108
175 104 56 41 57 62 53 47 43 43 43 41 40 40 39 39 41 43 48 48 48 51 54 58 62 67 72 75 76 78 77 79 81 86 88 87 87 84 83 82 89 90 89 96 99 98 104 110 100
214 199 215 311 43 53 50 41 39 40 39 38 36 34 33 33 39 41 46 46 45 47 50 55 60 62 66 69 71 74 73 71 72 74 75 79 82 83 79 75 77 78 76 80 87 80 77 81 84
223 217 225 240 265 49 39 27 23 30 33 32 30 27 27 29 35 39 40 43 44 44 46 50 55 58 63 66 68 68 69 66 67 69 75 81 82 83 79 71 68 62 56 57 62 61 65 25 311
223 224 227 226 228 229 325 2 12 20 24 25 22 21 22 24 30 35 37 37 38 41 43 43 49 53 59 64 64 63 62 58 59 64 69 84 83 81 74 65 56 42 32 27 18 348 314 291 284
225 223 227 230 234 241 262 300 343 4 12 14 14 15 16 18 23 27 31 31 32 34 36 41 47 52 54 57 57 56 55 52 53 57 58 59 54 41 44 33 27 16 1 351 335 318 302 294 298
230 227 229 232 236 242 252 277 294 314 339 355 4 10 12 12 17 21 23 24 25 27 29 33 39 43 45 48 49 49 46 44 42 41 37 31 13 2 357 353 349 343 331 317 315 316 306 302 299
232 231 232 234 238 245 248 258 278 286 300 326 344 359 3 7 12 13 10 12 15 18 21 26 30 31 30 31 34 35 39 37 30 23 21 16 6 357 347 336 329 321 313 308 310 311 310 305 299
232 233 235 238 241 244 249 245 262 275 283 300 320 337 346 352 357 360 1 5 5 7 9 12 18 20 20 17 16 16 17 18 14 6 1 355 350 341 334 322 317 311 310 311 308 307 306 301 300
230 232 235 239 242 244 248 247 251 265 270 279 294 310 324 335 339 344 348 354 357 358 358 357 0 2 4 4 5 6 4 359 355 353 345 338 332 327 322 316 315 313 310 312 312 309 306 302 299
227 228 232 237 240 243 248 248 245 253 259 268 278 291 302 315 320 325 329 336 342 347 350 348 347 350 352 351 349 348 349 350 348 347 345 341 334 325 322 318 317 312 311 312 313 310 307 305 303
227 227 227 232 240 246 250 249 249 249 255 262 268 277 285 293 303 311 317 323 329 333 340 340 338 335 337 338 338 333 328 334 335 336 336 333 328 326 321 316 312 312 311 308 304 302 302 301 301
228 227 229 235 237 238 248 252 252 249 252 257 263 270 277 280 288 297 305 310 317 326 328 330 333 328 326 326 329 326 324 325 325 325 325 321 320 315 311 308 308 306 307 306 305 301 299 300 298
228 229 229 231 236 240 247 252 252 250 250 255 260 265 270 276 281 289 295 297 304 312 317 320 326 329 328 325 321 323 325 326 323 321 322 315 313 310 306 302 303 303 304 304 305 305 303 302 300
227 228 231 235 237 238 245 253 252 248 248 251 256 260 262 269 275 279 283 287 294 302 308 311 314 318 321 323 320 318 317 318 318 319 316 313 314 315 311 310 309 307 305 303 302 301 303 301 301
228 230 232 235 240 239 238 248 251 247 247 249 251 256 258 263 266 269 271 278 285 291 298 301 304 308 312 317 317 313 309 306 309 313 317 317 317 322 319 316 314 309 305 305 303 302 302 302 300
Height
5903 5902 5901 5901 5900 5900 5898 5896 5894 5892 5891 5889 5887 5886 5885 5884 5883 5884 5880 5878 5877 5876 5874 5873 5872 5872 5872 5872 5872 5872 5872 5872 5871 5871 5871 5871 5872 5872 5872 5873 5874 5874 5875 5876 5876 5877 5878 5879 5880
5905 5904 5904 5904 5904 5903 5901 5898 5896 5894 5893 5890 5889 5888 5887 5885 5884 5883 5881 5880 5878 5877 5876 5874 5873 5874 5873 5873 5873 5873 5873 5873 5873 5873 5873 5873 5873 5873 5874 5874 5875 5876 5877 5877 5878 5878 5879 5880 5881
5907 5907 5907 5907 5906 5905 5903 5900 5898 5896 5894 5893 5891 5890 5889 5887 5886 5884 5883 5881 5880 5878 5878 5876 5875 5875 5875 5875 5875 5875 5874 5874 5874 5874 5874 5874 5874 5875 5875 5875 5876 5877 5878 5879 5880 5880 5881 5881 5882
5910 5910 5911 5911 5908 5907 5905 5902 5900 5898 5896 5895 5893 5892 5890 5889 5887 5886 5884 5883 5881 5880 5879 5878 5877 5877 5876 5876 5876 5876 5876 5876 5876 5875 5876 5876 5876 5876 5876 5877 5877 5878 5879 5880 5880 5881 5882 5882 5883
5913 5913 5914 5913 5911 5909 5907 5904 5902 5900 5898 5897 5895 5894 5892 5891 5889 5887 5886 5885 5883 5882 5881 5880 5879 5879 5878 5878 5878 5878 5878 5877 5877 5877 5877 5877 5877 5877 5877 5878 5878 5879 5880 5880 5881 5882 5882 5882 5884
5916 5917 5918 5915 5913 5911 5909 5906 5904 5903 5901 5899 5897 5896 5894 5892 5891 5889 5888 5886 5885 5884 5883 5882 5881 5880 5880 5879 5879 5879 5879 5879 5879 5879 5879 5879 5879 5879 5879 5879 5880 5880 5881 5881 5881 5882 5882 5883 5884
5920 5920 5919 5918 5916 5913 5912 5909 5907 5905 5903 5901 5900 5898 5896 5894 5893 5891 5890 5888 5887 5886 5885 5884 5883 5882 5882 5881 5881 5881 5880 5881 5880 5880 5880 5880 5880 5880 5881 5881 5881 5881 5882 5882 5882 5883 5884 5885 5885
5921 5923 5921 5920 5918 5916 5914 5911 5909 5907 5906 5904 5902 5900 5898 5897 5895 5893 5891 5890 5889 5888 5887 5885 5885 5884 5883 5883 5883 5882 5882 5882 5882 5882 5882 5882 5882 5882 5882 5882 5882 5883 5883 5883 5883 5884 5885 5886 5887
5923 5926 5924 5922 5920 5918 5916 5914 5912 5910 5908 5906 5904 5902 5901 5899 5897 5895 5893 5892 5891 5889 5888 5887 5886 5885 5885 5885 5884 5884 5884 5883 5883 5883 5883 5883 5883 5883 5883 5883 5883 5884 5884 5885 5885 5886 5886 5887 5888
5926 5928 5926 5924 5922 5920 5918 5916 5914 5912 5910 5908 5907 5905 5903 5901 5899 5897 5895 5894 5892 5891 5890 5889 5888 5887 5886 5886 5886 5886 5886 5885 5885 5885 5885 5885 5885 5884 5884 5884 5884 5885 5886 5886 5886 5887 5888 5888 5888
5928 5928 5927 5925 5924 5922 5920 5918 5917 5915 5913 5911 5909 5907 5905 5903 5901 5899 5898 5896 5895 5893 5892 5890 5889 5888 5888 5887 5887 5887 5887 5887 5887 5887 5887 5887 5887 5886 5885 5886 5886 5887 5887 5888 5888 5888 5889 5889 5889
5929 5929 5928 5927 5925 5924 5922 5921 5919 5917 5916 5914 5911 5909 5907 5905 5904 5902 5900 5899 5897 5895 5894 5892 5891 5890 5889 5889 5889 5889 5889 5889 5889 5889 5889 5888 5888 5888 5887 5887 5887 5888 5888 5889 5889 5889 5890 5890 5890
5930 5930 5929 5928 5927 5926 5924 5923 5921 5919 5918 5916 5914 5912 5910 5908 5906 5904 5903 5901 5899 5898 5896 5894 5893 5892 5891 5890 5890 5891 5891 5891 5890 5890 5890 5890 5890 5889 5889 5889 5889 5889 5890 5890 5890 5890 5891 5891 5891
5931 5931 5930 5929 5929 5927 5926 5925 5923 5922 5920 5918 5916 5914 5912 5910 5908 5907 5905 5904 5902 5900 5898 5897 5895 5894 5893 5893 5892 5892 5892 5892 5892 5892 5891 5891 5891 5891 5891 5891 5891 5891 5891 5891 5891 5891 5892 5892 5892
5931 5931 5931 5931 5930 5929 5928 5927 5925 5924 5922 5920 5918 5916 5915 5913 5911 5909 5907 5906 5904 5902 5901 5899 5897 5896 5895 5895 5894 5894 5893 5893 5893 5893 5893 5893 5892 5892 5892 5892 5893 5893 5892 5892 5892 5892 5892 5893 5893
5931 5932 5932 5932 5931 5930 5931 5930 5928 5925 5924 5922 5920 5918 5917 5915 5913 5911 5909 5908 5906 5905 5903 5901 5900 5899 5898 5897 5896 5895 5895 5894 5894 5894 5894 5894 5894 5894 5894 5894 5894 5894 5894 5893 5893 5893 5893 5893 5893
5931 5933 5933 5932 5932 5931 5931 5930 5929 5927 5925 5924 5922 5920 5919 5917 5915 5913 5911 5910 5908 5907 5905 5904 5902 5901 5900 5899 5898 5897 5896 5896 5895 5895 5895 5895 5895 5895 5895 5895 5895 5895 5895 5894 5894 5894 5894 5894 5893
5932 5932 5933 5932 5932 5932 5931 5931 5930 5928 5926 5925 5924 5922 5920 5919 5917 5915 5913 5911 5910 5909 5907 5906 5904 5903 5902 5901 5900 5899 5898 5898 5897 5897 5896 5897 5897 5897 5897 5896 5896 5896 5895 5895 5894 5894 5894 5894 5893
5929 5931 5932 5932 5931 5932 5931 5931 5930 5929 5927 5926 5925 5923 5922 5920 5918 5917 5915 5914 5912 5911 5909 5908 5907 5905 5904 5903 5902 5901 5900 5899 5898 5897 5896 5897 5898 5897 5897 5897 5897 5896 5896 5895 5895 5894 5894 5893 5893
5926 5928 5930 5930 5930 5931 5931 5931 5930 5929 5928 5927 5926 5924 5923 5921 5920 5918 5917 5915 5914 5912 5911 5910 5908 5907 5906 5905 5904 5903 5901 5900 5899 5899 5898 5898 5898 5898 5898 5897 5897 5897 5896 5895 5895 5894 5893 5893 5892
5923 5925 5927 5928 5929 5930 5930 5931 5930 5929 5928 5927 5926 5925 5924 5922 5921 5920 5918 5917 5915 5914 5912 5911 5910 5909 5908 5906 5905 5904 5903 5902 5901 5900 5900 5899 5899 5898 5898 5898 5897 5896 5896 5895 5894 5894 5893 5892 5892
5919 5922 5924 5926 5927 5928 5930 5931 5930 5929 5928 5927 5926 5925 5924 5923 5922 5921 5919 5918 5916 5915 5914 5912 5911 5910 5909 5908 5907 5905 5904 5903 5902 5901 5900 5900 5899 5898 5898 5897 5897 5896 5895 5894 5893 5893 5892 5891 5891
5916 5918 5920 5922 5924 5926 5927 5929 5930 5928 5927 5927 5926 5925 5924 5923 5922 5921 5920 5919 5917 5916 5914 5913 5912 5911 5910 5909 5907 5906 5905 5904 5903 5901 5900 5900 5899 5898 5897 5896 5896 5895 5894 5893 5892 5891 5891 5890 5889
5911 5915 5917 5919 5922 5924 5925 5926 5928 5926 5926 5926 5926 5925 5924 5923 5922 5921 5920 5919 5918 5916 5915 5913 5912 5911 5910 5909 5908 5907 5905 5904 5903 5902 5900 5899 5898 5897 5896 5895 5894 5894 5893 5892 5891 5890 5889 5888 5887
5906 5911 5914 5916 5918 5920 5921 5922 5925 5924 5924 5924 5924 5924 5923 5923 5922 5921 5920 5919 5917 5916 5915 5913 5912 5911 5910 5909 5908 5906 5905 5903 5902 5901 5900 5899 5897 5896 5895 5894 5893 5892 5891 5890 5889 5888 5887 5886 5885
5902 5907 5911 5914 5917 5918 5917 5918 5921 5921 5921 5922 5922 5922 5922 5921 5921 5920 5919 5918 5917 5915 5914 5913 5912 5911 5910 5909 5907 5906 5904 5903 5901 5900 5899 5898 5897 5895 5894 5893 5891 5890 5889 5888 5887 5886 5885 5884 5883
5897 5901 5906 5910 5912 5914 5915 5915 5916 5917 5918 5919 5919 5920 5920 5919 5919 5918 5917 5916 5915 5914 5913 5912 5911 5910 5909 5908 5906 5905 5903 5901 5900 5899 5897 5896 5895 5894 5893 5891 5890 5889 5888 5886 5885 5884 5882 5881 5880
5892 5896 5900 5904 5906 5909 5911 5911 5913 5913 5915 5916 5916 5917 5917 5917 5917 5916 5915 5915 5914 5913 5912 5911 5910 5909 5908 5906 5905 5904 5902 5900 5899 5897 5896 5895 5893 5892 5891 5889 5887 5886 5885 5884 5882 5881 5879 5878 5877
5886 5890 5894 5898 5901 5905 5908 5910 5908 5909 5911 5912 5913 5913 5914 5914 5914 5913 5913 5912 5912 5911 5910 5909 5908 5907 5906 5905 5904 5902 5901 5899 5897 5895 5894 5893 5892 5890 5888 5887 5885 5884 5883 5881 5880 5878 5876 5875 5874
5880 5884 5888 5892 5894 5898 5903 5907 5903 5904 5906 5908 5909 5909 5910 5910 5910 5910 5910 5910 5909 5909 5908 5907 5906 5906 5905 5903 5902 5900 5898 5897 5895 5894 5893 5891 5890 5888 5886 5884 5882 5881 5880 5878 5877 5875 5873 5872 5870